Weather in Vyazovok

Ukraine / Cherkassi District     49°10′15″N   31°24′33″E
temp.,
°C
wind,
m/s
gust,
m/s
humid.,
%
clouds,
%
prec.,
mm/h
press.,
hPa
HPBL,
m
11 april, sun
sun1100:00+5se22530 0.0 102710
03:00+4ssw22550 0.0 102710
06:00+4ssw11590 0.0 102810
09:00+8e11480 0.0 1029221
12:00+12ene33340 0.0 10281456
15:00+14ene33290 0.0 10271411
18:00+13ene34350 0.0 10271146
21:00+9nne224894 0.0 102720
12 april, mon
mon1200:00+7ne3358100 0.0 102736
03:00+6nne3463100 0.0 102657
06:00+5nne3471100 0.0 102561
09:00+8nne4659100 0.0 1024306
12:00+12ne4560100 0.0 1023811
15:00+11ne3379100 0.7 1022431
18:00+12ne3577100 0.1 1021534
21:00+10n2486100 0.1 1021107
13 april, tue
tue1300:00+10nw3689100 0.0 1020149
03:00+9nw4991100 0.1 1019259
06:00+9wnw3595100 0.1 1018137
09:00+9wnw0094100 0.1 101857
12:00+14ssw2377100 0.0 1018667
15:00+13ssw4581100 0.1 1018569
18:00+13s3581100 0.0 1018507
21:00+11sse2586100 0.1 1018200
14 april, wed
wed1400:00+11sse3783100 0.2 1018237
03:00+10sse2586100 0.2 1017137
06:00+9sse368794 0.0 1017288
09:00+10s367589 0.0 1017375
12:00+13sse4659100 0.0 1016946
15:00+14s4551100 0.0 10151513
18:00+13se2456100 0.0 1014106
21:00+11s2368100 0.0 101568
15 april, thu
thu1500:00+11sse2272100 0.0 101441
03:00+9sse128267 0.1 101411
06:00+8ese228747 0.0 101422
09:00+11ese34727 0.0 1014453
12:00+15ese445097 0.0 10131403
15:00+16e3448100 0.0 10121879
18:00+14ene456289 0.1 1012405
21:00+12ene2467100 0.1 1012102